USA 167

Last updated on Thu Nov 21 2024 00:02:40 GMT+0000 (Coordinated Universal Time)

1 27691U 03008A 24325.45489921 .00000004 00000+0 00000+0 0 9996 2 27691 9.8129 48.2731 0003602 238.8444 174.9480 1.00272634 1026
UTC large
Height (km)
Speed (km/s)
/
Latitude / Longitude
Inclination (degrees)
Orbital Period (minutes)
Azimuth
Elevation
Range (km)
Doppler Factor

Next 0 passes for location: London (51.5072 / 0.1276)

Sorry there are no passes over London.